Location: Albany
(35.0000°S, 118.0000°E)
Time: 09:36:11
(UTC-04:00)

Transit 2A - Visible Passes

Search period start: 18 April 2014 00:00
Search period end: 28 April 2014 00:00
Orbit: 600 x 964 km, 66.7° (Epoch: 17 April)

Date Brightness Start Highest point End Pass type
(mag) Time Alt. Az. Time Alt. Az. Time Alt. Az.
19 Apr 8.7 08:22:31 10° S 08:22:50 11° S 08:22:50 11° S visible
20 Apr 8.5 07:49:45 10° S 07:50:27 12° SSE 07:50:27 12° SSE visible
21 Apr 8.5 07:17:28 10° SSE 07:18:08 11° SSE 07:18:08 11° SSE visible
21 Apr 8.8 08:57:57 10° SSW 08:58:41 14° SSW 08:58:41 14° SSW visible
22 Apr 8.3 08:24:40 10° SSW 08:26:25 19° S 08:26:25 19° S visible
23 Apr 7.9 07:51:29 10° S 07:54:14 24° S 07:54:14 24° S visible
23 Apr 9.2 09:34:42 10° SW 09:34:48 10° SW 09:34:48 10° SW visible
24 Apr 7.7 07:18:26 10° S 07:22:09 24° SSE 07:22:09 24° SSE visible
24 Apr 8.6 09:01:01 10° SW 09:02:43 19° SW 09:02:43 19° SW visible
25 Apr 7.8 06:45:33 10° S 06:49:52 19° SE 06:50:11 19° SE visible
25 Apr 7.8 08:27:28 10° SSW 08:30:45 33° SW 08:30:45 33° SW visible
26 Apr 8.1 06:12:59 10° SSE 06:16:07 14° SE 06:18:21 12° ESE visible
26 Apr 6.8 07:54:02 10° SSW 07:58:57 56° S 07:58:57 56° S visible
26 Apr 9.3 09:39:28 10° WSW 09:39:32 10° WSW 09:39:32 10° WSW visible
27 Apr 6.5 07:20:42 10° SSW 07:26:54 55° ESE 07:27:20 54° ESE visible
27 Apr 8.6 09:05:00 10° SW 09:07:57 20° W 09:07:57 20° W visible
